Location: Im Fang
(46.6019°N, 7.2397°E)
Time: 19:38:30
(UTC+00:00)

SJ-7 - Pass Details

Date: 08 December 2019
Orbit: 556 x 603 km, 97.7° (Epoch: 25 January)

Event Time Altitude Azimuth Distance (km) Brightness Sun altitude
Rises 05:41:25 0° 10° (N) 2,783 7.8 -13.2°
Reaches altitude 10° 05:43:35 10° 8° (N) 1,874 6.9 -12.9°
Maximum altitude 05:47:36 67° 286° (WNW) 612 4.3 -12.2°
Drops below altitude 10° 05:51:33 10° 204° (SSW) 1,840 7.0 -11.6°
Sets 05:53:40 0° 201° (SSW) 2,727 7.9 -11.2°
